Time,TemperatureF,DewpointF,PressureIn,WindDirection,WindDirectionDegrees,WindSpeedMPH,WindSpeedGustMPH,Humidity,HourlyPrecipIn,Conditions,Clouds,dailyrainin,SoftwareType,DateUTC
2013-05-23 00:01:00,75.0,70.2,29.92,East,88,0.0,0.0,85,0.00,,,0.00,Wunderground v.1.13,2013-05-23 04:01:00,
2013-05-23 00:02:00,74.9,70.1,29.92,East,88,0.0,0.0,85,0.00,,,0.00,Wunderground v.1.13,2013-05-23 04:02:00,
2013-05-23 00:03:00,74.9,70.1,29.92,East,88,0.0,0.0,85,0.00,,,0.00,Wunderground v.1.13,2013-05-23 04:03:00,
2013-05-23 00:08:00,74.8,70.0,29.93,East,88,0.0,0.0,85,0.00,,,0.00,Wunderground v.1.13,2013-05-23 04:08:00,
2013-05-23 00:13:00,74.8,70.0,29.93,East,88,0.0,0.0,85,0.00,,,0.00,Wunderground v.1.13,2013-05-23 04:13:00,
2013-05-23 00:18:00,74.8,70.0,29.92,East,88,0.0,0.0,85,0.00,,,0.00,Wunderground v.1.13,2013-05-23 04:18:00,
2013-05-23 00:23:00,74.7,69.9,29.92,East,88,0.0,0.0,85,0.00,,,0.00,Wunderground v.1.13,2013-05-23 04:23:00,
2013-05-23 00:28:00,74.7,70.2,29.92,East,88,0.0,0.0,86,0.00,,,0.00,Wunderground v.1.13,2013-05-23 04:28:00,
2013-05-23 00:33:00,74.6,69.8,29.92,East,88,0.0,0.0,85,0.00,,,0.00,Wunderground v.1.13,2013-05-23 04:33:00,
2013-05-23 00:38:00,74.5,69.7,29.92,East,88,0.0,0.0,85,0.00,,,0.00,Wunderground v.1.13,2013-05-23 04:38:00,
2013-05-23 00:43:00,74.4,69.6,29.93,East,88,0.0,0.0,85,0.00,,,0.00,Wunderground v.1.13,2013-05-23 04:43:00,
2013-05-23 00:48:00,74.3,69.5,29.92,East,88,0.0,0.0,85,0.00,,,0.00,Wunderground v.1.13,2013-05-23 04:48:00,
2013-05-23 00:53:00,74.4,69.9,29.93,East,88,0.0,0.0,86,0.00,,,0.00,Wunderground v.1.13,2013-05-23 04:53:00,
2013-05-23 00:59:00,74.3,69.5,29.93,East,88,0.0,0.0,85,0.00,,,0.00,Wunderground v.1.13,2013-05-23 04:59:00,
2013-05-23 01:04:00,74.2,69.7,29.93,East,88,0.0,0.0,86,0.00,,,0.00,Wunderground v.1.13,2013-05-23 05:04:00,
2013-05-23 01:09:00,74.2,69.7,29.93,East,88,0.0,0.0,86,0.00,,,0.00,Wunderground v.1.13,2013-05-23 05:09:00,
2013-05-23 01:14:00,74.2,69.7,29.93,East,88,0.0,0.0,86,0.00,,,0.00,Wunderground v.1.13,2013-05-23 05:14:00,
2013-05-23 01:19:00,74.1,69.6,29.92,East,88,0.0,0.0,86,0.00,,,0.00,Wunderground v.1.13,2013-05-23 05:19:00,
2013-05-23 01:24:00,74.0,69.5,29.92,East,88,0.0,0.0,86,0.00,,,0.00,Wunderground v.1.13,2013-05-23 05:24:00,
2013-05-23 01:29:00,73.9,69.4,29.92,East,88,0.0,0.0,86,0.00,,,0.00,Wunderground v.1.13,2013-05-23 05:29:00,
2013-05-23 01:34:00,73.8,69.3,29.91,East,88,0.0,0.0,86,0.00,,,0.00,Wunderground v.1.13,2013-05-23 05:34:00,
2013-05-23 01:39:00,73.7,69.2,29.91,East,88,0.0,0.0,86,0.00,,,0.00,Wunderground v.1.13,2013-05-23 05:39:00,
2013-05-23 01:44:00,73.7,69.2,29.91,East,88,0.0,0.0,86,0.00,,,0.00,Wunderground v.1.13,2013-05-23 05:44:00,
2013-05-23 01:49:00,73.5,69.4,29.91,East,88,0.0,0.0,87,0.00,,,0.00,Wunderground v.1.13,2013-05-23 05:49:00,
2013-05-23 01:54:00,73.4,69.3,29.91,East,88,0.0,0.0,87,0.00,,,0.00,Wunderground v.1.13,2013-05-23 05:54:00,
2013-05-23 01:59:00,73.4,69.3,29.91,East,88,0.0,0.0,87,0.00,,,0.00,Wunderground v.1.13,2013-05-23 05:59:00,
2013-05-23 02:04:00,73.3,69.2,29.91,East,88,0.0,0.0,87,0.00,,,0.00,Wunderground v.1.13,2013-05-23 06:04:00,
2013-05-23 02:10:00,73.4,69.3,29.91,East,88,0.0,0.0,87,0.00,,,0.00,Wunderground v.1.13,2013-05-23 06:10:00,
2013-05-23 02:15:00,73.3,69.2,29.91,East,88,0.0,0.0,87,0.00,,,0.00,Wunderground v.1.13,2013-05-23 06:15:00,
2013-05-23 02:20:00,73.2,69.1,29.91,East,88,0.0,0.0,87,0.00,,,0.00,Wunderground v.1.13,2013-05-23 06:20:00,
2013-05-23 02:25:00,73.1,69.3,29.91,East,88,0.0,0.0,88,0.00,,,0.00,Wunderground v.1.13,2013-05-23 06:25:00,
2013-05-23 02:30:00,73.1,69.3,29.91,East,88,0.0,0.0,88,0.00,,,0.00,Wunderground v.1.13,2013-05-23 06:30:00,
2013-05-23 02:35:00,73.1,69.3,29.91,East,88,0.0,0.0,88,0.00,,,0.00,Wunderground v.1.13,2013-05-23 06:35:00,
2013-05-23 02:40:00,72.9,69.1,29.91,East,88,0.0,0.0,88,0.00,,,0.00,Wunderground v.1.13,2013-05-23 06:40:00,
2013-05-23 02:45:00,72.8,69.0,29.90,East,88,0.0,0.0,88,0.00,,,0.00,Wunderground v.1.13,2013-05-23 06:45:00,
2013-05-23 02:50:00,72.7,68.9,29.90,East,88,0.0,0.0,88,0.00,,,0.00,Wunderground v.1.13,2013-05-23 06:50:00,
2013-05-23 02:55:00,72.6,68.8,29.91,East,88,0.0,0.0,88,0.00,,,0.00,Wunderground v.1.13,2013-05-23 06:55:00,
2013-05-23 03:00:00,72.6,68.8,29.91,East,88,0.0,0.0,88,0.00,,,0.00,Wunderground v.1.13,2013-05-23 07:00:00,
2013-05-23 03:05:00,72.4,68.6,29.91,East,88,0.0,0.0,88,0.00,,,0.00,Wunderground v.1.13,2013-05-23 07:05:00,
2013-05-23 03:11:00,72.3,68.5,29.91,East,88,0.0,0.0,88,0.00,,,0.00,Wunderground v.1.13,2013-05-23 07:11:00,
2013-05-23 03:16:00,72.2,68.8,29.91,East,88,0.0,0.0,89,0.00,,,0.00,Wunderground v.1.13,2013-05-23 07:16:00,
2013-05-23 03:21:00,72.1,68.7,29.91,East,88,0.0,0.0,89,0.00,,,0.00,Wunderground v.1.13,2013-05-23 07:21:00,
2013-05-23 03:26:00,72.0,68.6,29.91,East,88,0.0,0.0,89,0.00,,,0.00,Wunderground v.1.13,2013-05-23 07:26:00,
2013-05-23 03:31:00,71.9,68.5,29.91,East,88,0.0,0.0,89,0.00,,,0.00,Wunderground v.1.13,2013-05-23 07:31:00,
2013-05-23 03:36:00,71.9,68.5,29.92,East,88,0.0,0.0,89,0.00,,,0.00,Wunderground v.1.13,2013-05-23 07:36:00,
2013-05-23 03:41:00,71.9,68.5,29.92,East,88,0.0,0.0,89,0.00,,,0.00,Wunderground v.1.13,2013-05-23 07:41:00,
2013-05-23 03:46:00,71.8,68.4,29.92,East,88,0.0,0.0,89,0.00,,,0.00,Wunderground v.1.13,2013-05-23 07:46:00,
2013-05-23 03:52:00,71.6,68.2,29.92,East,88,0.0,0.0,89,0.00,,,0.00,Wunderground v.1.13,2013-05-23 07:52:00,
2013-05-23 03:57:00,71.5,68.1,29.92,East,88,0.0,0.0,89,0.00,,,0.00,Wunderground v.1.13,2013-05-23 07:57:00,
2013-05-23 04:02:00,71.5,68.1,29.92,East,88,0.0,0.0,89,0.00,,,0.00,Wunderground v.1.13,2013-05-23 08:02:00,
2013-05-23 04:07:00,71.4,68.0,29.92,East,88,0.0,0.0,89,0.00,,,0.00,Wunderground v.1.13,2013-05-23 08:07:00,
2013-05-23 04:12:00,71.3,67.9,29.92,East,88,0.0,0.0,89,0.00,,,0.00,Wunderground v.1.13,2013-05-23 08:12:00,
2013-05-23 04:18:00,71.3,68.2,29.92,East,88,0.0,0.0,90,0.00,,,0.00,Wunderground v.1.13,2013-05-23 08:18:00,
2013-05-23 04:23:00,71.3,68.2,29.92,East,88,0.0,0.0,90,0.00,,,0.00,Wunderground v.1.13,2013-05-23 08:23:00,
2013-05-23 04:28:00,71.3,68.2,29.93,East,88,0.0,0.0,90,0.00,,,0.00,Wunderground v.1.13,2013-05-23 08:28:00,
2013-05-23 04:33:00,71.2,68.1,29.93,East,88,0.0,0.0,90,0.00,,,0.00,Wunderground v.1.13,2013-05-23 08:33:00,
2013-05-23 04:38:00,71.0,67.9,29.93,East,88,0.0,0.0,90,0.00,,,0.00,Wunderground v.1.13,2013-05-23 08:38:00,
2013-05-23 04:43:00,71.0,67.9,29.93,East,88,0.0,0.0,90,0.00,,,0.00,Wunderground v.1.13,2013-05-23 08:43:00,
2013-05-23 04:48:00,71.0,67.9,29.93,East,88,0.0,0.0,90,0.00,,,0.00,Wunderground v.1.13,2013-05-23 08:48:00,
2013-05-23 04:53:00,71.0,67.9,29.93,East,88,0.0,0.0,90,0.00,,,0.00,Wunderground v.1.13,2013-05-23 08:53:00,
2013-05-23 04:58:00,71.0,67.9,29.93,East,88,0.0,0.0,90,0.00,,,0.00,Wunderground v.1.13,2013-05-23 08:58:00,
2013-05-23 05:04:00,70.9,67.8,29.93,East,88,0.0,0.0,90,0.00,,,0.00,Wunderground v.1.13,2013-05-23 09:04:00,
2013-05-23 05:09:00,70.7,67.6,29.93,East,88,0.0,0.0,90,0.00,,,0.00,Wunderground v.1.13,2013-05-23 09:09:00,
2013-05-23 05:14:00,70.7,67.6,29.94,East,88,0.0,0.0,90,0.00,,,0.00,Wunderground v.1.13,2013-05-23 09:14:00,
2013-05-23 05:19:00,70.7,67.6,29.94,East,88,0.0,0.0,90,0.00,,,0.00,Wunderground v.1.13,2013-05-23 09:19:00,
2013-05-23 05:24:00,70.7,67.6,29.94,East,88,0.0,0.0,90,0.00,,,0.00,Wunderground v.1.13,2013-05-23 09:24:00,
2013-05-23 05:29:00,70.7,67.6,29.94,East,88,0.0,0.0,90,0.00,,,0.00,Wunderground v.1.13,2013-05-23 09:29:00,
2013-05-23 05:34:00,70.6,67.8,29.94,East,88,0.0,0.0,91,0.00,,,0.00,Wunderground v.1.13,2013-05-23 09:34:00,
2013-05-23 05:39:00,70.6,67.8,29.94,East,88,0.0,0.0,91,0.00,,,0.00,Wunderground v.1.13,2013-05-23 09:39:00,
2013-05-23 05:44:00,70.4,67.3,29.94,East,88,0.0,0.0,90,0.00,,,0.00,Wunderground v.1.13,2013-05-23 09:44:00,
2013-05-23 05:49:00,70.3,67.2,29.94,East,88,0.0,0.0,90,0.00,,,0.00,Wunderground v.1.13,2013-05-23 09:49:00,
2013-05-23 05:55:00,70.3,67.2,29.95,East,88,0.0,0.0,90,0.00,,,0.00,Wunderground v.1.13,2013-05-23 09:55:00,
2013-05-23 06:00:00,70.3,67.5,29.95,East,88,0.0,0.0,91,0.00,,,0.00,Wunderground v.1.13,2013-05-23 10:00:00,
2013-05-23 06:05:00,70.3,67.5,29.95,East,88,0.0,0.0,91,0.00,,,0.00,Wunderground v.1.13,2013-05-23 10:05:00,
2013-05-23 06:10:00,70.3,67.5,29.95,East,88,0.0,0.0,91,0.00,,,0.00,Wunderground v.1.13,2013-05-23 10:10:00,
2013-05-23 06:15:00,70.3,67.5,29.95,East,88,0.0,0.0,91,0.00,,,0.00,Wunderground v.1.13,2013-05-23 10:15:00,
2013-05-23 06:20:00,70.3,67.5,29.95,East,88,0.0,0.0,91,0.00,,,0.00,Wunderground v.1.13,2013-05-23 10:20:00,
2013-05-23 06:25:00,70.2,67.4,29.95,East,88,0.0,0.0,91,0.00,,,0.00,Wunderground v.1.13,2013-05-23 10:25:00,
2013-05-23 06:30:00,70.0,67.3,29.95,East,88,0.0,0.0,91,0.00,,,0.00,Wunderground v.1.13,2013-05-23 10:30:00,
2013-05-23 06:35:00,69.9,67.2,29.95,East,88,0.0,0.0,91,0.00,,,0.00,Wunderground v.1.13,2013-05-23 10:35:00,
2013-05-23 06:40:00,69.8,67.1,29.95,East,88,0.0,0.0,91,0.00,,,0.00,Wunderground v.1.13,2013-05-23 10:40:00,
2013-05-23 06:45:00,69.9,67.2,29.96,East,88,0.0,0.0,91,0.00,,,0.00,Wunderground v.1.13,2013-05-23 10:45:00,
2013-05-23 06:50:00,69.9,67.2,29.96,East,88,0.0,0.0,91,0.00,,,0.00,Wunderground v.1.13,2013-05-23 10:50:00,
2013-05-23 06:55:00,70.1,67.3,29.96,East,88,0.0,0.0,91,0.00,,,0.00,Wunderground v.1.13,2013-05-23 10:55:00,
2013-05-23 07:00:00,70.1,67.3,29.96,East,88,0.0,0.0,91,0.00,,,0.00,Wunderground v.1.13,2013-05-23 11:00:00,
2013-05-23 07:05:00,70.1,67.3,29.97,East,88,0.0,0.0,91,0.00,,,0.00,Wunderground v.1.13,2013-05-23 11:05:00,
2013-05-23 07:10:00,70.1,67.3,29.97,East,88,0.0,0.0,91,0.00,,,0.00,Wunderground v.1.13,2013-05-23 11:10:00,
2013-05-23 07:15:00,70.2,67.4,29.97,East,88,0.0,0.0,91,0.00,,,0.00,Wunderground v.1.13,2013-05-23 11:15:00,
2013-05-23 07:20:00,70.3,67.5,29.97,East,88,0.0,0.0,91,0.00,,,0.00,Wunderground v.1.13,2013-05-23 11:20:00,
2013-05-23 07:26:00,70.5,67.7,29.97,East,87,0.0,0.0,91,0.00,,,0.00,Wunderground v.1.13,2013-05-23 11:26:00,
2013-05-23 07:31:00,70.7,68.3,29.97,East,87,0.0,0.0,92,0.00,,,0.00,Wunderground v.1.13,2013-05-23 11:31:00,
2013-05-23 07:36:00,71.2,68.8,29.97,East,88,0.0,0.0,92,0.00,,,0.00,Wunderground v.1.13,2013-05-23 11:36:00,
2013-05-23 07:41:00,71.7,69.3,29.97,East,88,0.0,0.0,92,0.00,,,0.00,Wunderground v.1.13,2013-05-23 11:41:00,
2013-05-23 07:46:00,72.4,69.9,29.97,East,88,0.0,0.0,92,0.00,,,0.00,Wunderground v.1.13,2013-05-23 11:46:00,
2013-05-23 07:51:00,73.2,70.7,29.98,East,88,0.0,0.0,92,0.00,,,0.00,Wunderground v.1.13,2013-05-23 11:51:00,
2013-05-23 07:56:00,73.7,71.2,29.98,East,88,0.0,0.0,92,0.00,,,0.00,Wunderground v.1.13,2013-05-23 11:56:00,
2013-05-23 08:01:00,73.9,71.4,29.98,East,88,0.0,0.0,92,0.00,,,0.00,Wunderground v.1.13,2013-05-23 12:01:00,
2013-05-23 08:06:00,74.3,72.1,29.98,East,87,0.0,0.0,93,0.00,,,0.00,Wunderground v.1.13,2013-05-23 12:06:00,
2013-05-23 08:11:00,74.7,72.5,29.99,East,88,0.0,0.0,93,0.00,,,0.00,Wunderground v.1.13,2013-05-23 12:11:00,
2013-05-23 08:16:00,75.1,72.9,29.99,East,87,0.0,1.0,93,0.00,,,0.00,Wunderground v.1.13,2013-05-23 12:16:00,
2013-05-23 08:22:00,75.4,73.2,29.99,East,88,0.0,0.0,93,0.00,,,0.00,Wunderground v.1.13,2013-05-23 12:22:00,
2013-05-23 08:27:00,75.8,73.3,29.99,ENE,74,0.0,1.0,92,0.00,,,0.00,Wunderground v.1.13,2013-05-23 12:27:00,
2013-05-23 08:32:00,76.2,73.4,29.99,ENE,74,0.0,1.0,91,0.00,,,0.00,Wunderground v.1.13,2013-05-23 12:32:00,
2013-05-23 08:37:00,76.6,73.1,29.99,ENE,74,2.0,3.0,89,0.00,,,0.00,Wunderground v.1.13,2013-05-23 12:37:00,
2013-05-23 08:42:00,76.7,72.5,30.00,NE,50,1.0,3.0,87,0.00,,,0.00,Wunderground v.1.13,2013-05-23 12:42:00,
2013-05-23 08:47:00,77.2,73.0,29.99,NE,49,1.0,3.0,87,0.00,,,0.00,Wunderground v.1.13,2013-05-23 12:47:00,
2013-05-23 08:52:00,77.7,72.5,29.99,NNE,32,0.0,5.0,84,0.00,,,0.00,Wunderground v.1.13,2013-05-23 12:52:00,
2013-05-23 08:57:00,78.4,72.4,29.99,NNE,31,0.0,5.0,82,0.00,,,0.00,Wunderground v.1.13,2013-05-23 12:57:00,
2013-05-23 09:02:00,78.9,72.2,30.00,NNE,30,4.0,4.0,80,0.00,,,0.00,Wunderground v.1.13,2013-05-23 13:02:00,
2013-05-23 09:07:00,79.2,71.7,30.00,NNE,26,2.0,3.0,78,0.00,,,0.00,Wunderground v.1.13,2013-05-23 13:07:00,
2013-05-23 09:12:00,79.3,71.5,30.00,NNE,25,0.0,4.0,77,0.00,,,0.00,Wunderground v.1.13,2013-05-23 13:12:00,
2013-05-23 09:17:00,79.7,71.1,30.00,NNE,12,0.0,6.0,75,0.00,,,0.00,Wunderground v.1.13,2013-05-23 13:17:00,
2013-05-23 09:22:00,80.2,70.8,30.00,North,11,6.0,6.0,73,0.00,,,0.00,Wunderground v.1.13,2013-05-23 13:22:00,
2013-05-23 09:28:00,80.7,71.2,30.00,North,11,3.0,3.0,73,0.00,,,0.00,Wunderground v.1.13,2013-05-23 13:28:00,
2013-05-23 09:33:00,81.4,71.5,30.00,North,11,2.0,6.0,72,0.00,,,0.00,Wunderground v.1.13,2013-05-23 13:33:00,
2013-05-23 09:38:00,81.7,71.4,30.00,NNE,12,0.0,4.0,71,0.00,,,0.00,Wunderground v.1.13,2013-05-23 13:38:00,
2013-05-23 09:43:00,82.0,72.1,30.00,North,9,2.0,5.0,72,0.00,,,0.00,Wunderground v.1.13,2013-05-23 13:43:00,
2013-05-23 09:48:00,82.3,72.0,30.00,NNW,329,7.0,9.0,71,0.00,,,0.00,Wunderground v.1.13,2013-05-23 13:48:00,
2013-05-23 09:53:00,81.9,72.4,30.00,NNW,328,3.0,5.0,73,0.00,,,0.00,Wunderground v.1.13,2013-05-23 13:53:00,
2013-05-23 09:58:00,81.8,71.9,30.00,NNW,327,4.0,5.0,72,0.00,,,0.00,Wunderground v.1.13,2013-05-23 13:58:00,
2013-05-23 10:04:00,82.1,72.2,30.00,NNW,327,0.0,3.0,72,0.00,,,0.00,Wunderground v.1.13,2013-05-23 14:04:00,
2013-05-23 10:08:00,82.9,71.7,30.00,NNW,327,1.0,3.0,69,0.00,,,0.00,Wunderground v.1.13,2013-05-23 14:08:00,
2013-05-23 10:14:00,83.2,71.5,30.00,SW,225,3.0,11.0,68,0.00,,,0.00,Wunderground v.1.13,2013-05-23 14:14:00,
2013-05-23 10:19:00,82.9,71.7,30.00,West,277,6.0,7.0,69,0.00,,,0.00,Wunderground v.1.13,2013-05-23 14:19:00,
2013-05-23 10:24:00,82.4,70.8,30.00,West,277,0.0,5.0,68,0.00,,,0.00,Wunderground v.1.13,2013-05-23 14:24:00,
2013-05-23 10:29:00,82.2,70.6,30.00,West,278,0.0,4.0,68,0.00,,,0.00,Wunderground v.1.13,2013-05-23 14:29:00,
2013-05-23 10:34:00,82.8,70.7,30.00,West,279,0.0,2.0,67,0.00,,,0.00,Wunderground v.1.13,2013-05-23 14:34:00,
2013-05-23 10:39:00,83.2,71.5,30.00,West,272,3.0,7.0,68,0.00,,,0.00,Wunderground v.1.13,2013-05-23 14:39:00,
2013-05-23 10:44:00,83.3,71.2,30.00,West,281,4.0,6.0,67,0.00,,,0.00,Wunderground v.1.13,2013-05-23 14:44:00,
2013-05-23 10:49:00,83.1,70.1,29.99,WNW,283,6.0,6.0,65,0.00,,,0.00,Wunderground v.1.13,2013-05-23 14:49:00,
2013-05-23 10:54:00,82.8,70.3,29.99,WNW,284,0.0,6.0,66,0.00,,,0.00,Wunderground v.1.13,2013-05-23 14:54:00,
2013-05-23 10:59:00,83.4,70.4,29.99,WNW,290,0.0,6.0,65,0.00,,,0.00,Wunderground v.1.13,2013-05-23 14:59:00,
2013-05-23 11:05:00,83.9,70.0,29.99,WNW,290,0.0,1.0,63,0.00,,,0.00,Wunderground v.1.13,2013-05-23 15:05:00,
2013-05-23 11:10:00,84.6,71.1,29.99,WNW,290,2.0,5.0,64,0.00,,,0.00,Wunderground v.1.13,2013-05-23 15:10:00,
2013-05-23 11:15:00,84.8,70.8,29.99,WNW,290,2.0,6.0,63,0.00,,,0.00,Wunderground v.1.13,2013-05-23 15:15:00,
2013-05-23 11:20:00,84.5,70.5,29.99,WNW,290,3.0,3.0,63,0.00,,,0.00,Wunderground v.1.13,2013-05-23 15:20:00,
2013-05-23 11:25:00,84.6,70.6,30.00,WNW,290,0.0,1.0,63,0.00,,,0.00,Wunderground v.1.13,2013-05-23 15:25:00,
2013-05-23 11:30:00,85.0,70.5,30.00,WNW,290,0.0,2.0,62,0.00,,,0.00,Wunderground v.1.13,2013-05-23 15:30:00,
2013-05-23 11:35:00,84.9,70.4,30.00,WNW,290,2.0,5.0,62,0.00,,,0.00,Wunderground v.1.13,2013-05-23 15:35:00,
2013-05-23 11:40:00,84.9,70.9,30.00,WNW,290,0.0,4.0,63,0.00,,,0.00,Wunderground v.1.13,2013-05-23 15:40:00,
2013-05-23 11:45:00,85.1,71.1,30.00,WNW,291,0.0,2.0,63,0.00,,,0.00,Wunderground v.1.13,2013-05-23 15:45:00,
2013-05-23 11:50:00,85.5,71.5,30.00,WNW,291,0.0,5.0,63,0.00,,,0.00,Wunderground v.1.13,2013-05-23 15:50:00,
2013-05-23 11:56:00,85.6,70.6,30.00,WNW,291,2.0,5.0,61,0.00,,,0.00,Wunderground v.1.13,2013-05-23 15:56:00,
2013-05-23 12:01:00,86.2,71.2,30.00,WNW,290,3.0,5.0,61,0.00,,,0.00,Wunderground v.1.13,2013-05-23 16:01:00,
2013-05-23 12:06:00,86.6,71.1,30.00,WNW,290,0.0,1.0,60,0.00,,,0.00,Wunderground v.1.13,2013-05-23 16:06:00,
2013-05-23 12:11:00,86.6,71.1,30.00,WNW,290,3.0,3.0,60,0.00,,,0.00,Wunderground v.1.13,2013-05-23 16:11:00,
2013-05-23 12:16:00,86.2,72.1,30.00,WNW,290,4.0,4.0,63,0.00,,,0.00,Wunderground v.1.13,2013-05-23 16:16:00,
2013-05-23 12:21:00,85.1,72.9,30.00,WSW,249,6.0,6.0,67,0.00,,,0.00,Wunderground v.1.13,2013-05-23 16:21:00,
2013-05-23 12:26:00,84.0,72.3,30.00,SSE,167,7.0,7.0,68,0.00,,,0.00,Wunderground v.1.13,2013-05-23 16:26:00,
2013-05-23 12:31:00,83.6,72.8,30.00,South,171,2.0,5.0,70,0.00,,,0.00,Wunderground v.1.13,2013-05-23 16:31:00,
2013-05-23 12:36:00,84.3,73.0,30.00,SSW,196,5.0,5.0,69,0.00,,,0.00,Wunderground v.1.13,2013-05-23 16:36:00,
2013-05-23 12:41:00,83.9,72.6,30.00,SSE,161,0.0,5.0,69,0.00,,,0.00,Wunderground v.1.13,2013-05-23 16:41:00,
2013-05-23 12:46:00,83.4,72.6,29.99,SSE,163,0.0,5.0,70,0.00,,,0.00,Wunderground v.1.13,2013-05-23 16:46:00,
2013-05-23 12:51:00,83.7,72.9,30.00,SSE,163,1.0,4.0,70,0.00,,,0.00,Wunderground v.1.13,2013-05-23 16:51:00,
2013-05-23 12:56:00,84.3,73.0,30.00,SSE,160,3.0,4.0,69,0.00,,,0.00,Wunderground v.1.13,2013-05-23 16:56:00,
2013-05-23 13:01:00,84.7,73.0,29.99,SSE,165,5.0,5.0,68,0.00,,,0.00,Wunderground v.1.13,2013-05-23 17:01:00,
2013-05-23 13:07:00,86.1,74.3,29.99,SSE,160,0.0,3.0,68,0.00,,,0.00,Wunderground v.1.13,2013-05-23 17:07:00,
2013-05-23 13:12:00,87.7,74.0,29.99,SSE,160,0.0,1.0,64,0.00,,,0.00,Wunderground v.1.13,2013-05-23 17:12:00,
2013-05-23 13:17:00,88.5,73.8,29.99,SSE,161,5.0,5.0,62,0.00,,,0.00,Wunderground v.1.13,2013-05-23 17:17:00,
2013-05-23 13:22:00,88.9,73.7,29.99,SSE,157,1.0,1.0,61,0.00,,,0.00,Wunderground v.1.13,2013-05-23 17:22:00,
2013-05-23 13:27:00,88.6,73.4,29.99,SSE,157,0.0,0.0,61,0.00,,,0.00,Wunderground v.1.13,2013-05-23 17:27:00,
2013-05-23 13:32:00,88.3,73.1,29.99,SSE,156,0.0,0.0,61,0.00,,,0.00,Wunderground v.1.13,2013-05-23 17:32:00,
2013-05-23 13:37:00,87.7,73.1,29.99,SSE,160,0.0,0.0,62,0.00,,,0.00,Wunderground v.1.13,2013-05-23 17:37:00,
2013-05-23 13:42:00,87.0,73.3,29.99,SSE,160,1.0,1.0,64,0.00,,,0.00,Wunderground v.1.13,2013-05-23 17:42:00,
2013-05-23 13:47:00,86.6,73.0,29.98,SSE,167,0.0,2.0,64,0.00,,,0.00,Wunderground v.1.13,2013-05-23 17:47:00,
2013-05-23 13:52:00,85.9,72.8,29.98,SSW,208,3.0,5.0,65,0.00,,,0.00,Wunderground v.1.13,2013-05-23 17:52:00,
2013-05-23 13:57:00,85.6,72.9,29.98,SW,234,3.0,6.0,66,0.00,,,0.00,Wunderground v.1.13,2013-05-23 17:57:00,
2013-05-23 14:03:00,86.2,73.5,29.98,WNW,291,3.0,9.0,66,0.00,,,0.00,Wunderground v.1.13,2013-05-23 18:03:00,
2013-05-23 14:08:00,86.2,73.0,29.98,North,355,0.0,6.0,65,0.00,,,0.00,Wunderground v.1.13,2013-05-23 18:08:00,
2013-05-23 14:13:00,85.8,72.2,29.98,North,355,0.0,3.0,64,0.00,,,0.00,Wunderground v.1.13,2013-05-23 18:13:00,
2013-05-23 14:18:00,86.0,72.4,29.98,North,360,4.0,7.0,64,0.00,,,0.00,Wunderground v.1.13,2013-05-23 18:18:00,
2013-05-23 14:23:00,86.1,72.0,29.98,NW,313,3.0,5.0,63,0.00,,,0.00,Wunderground v.1.13,2013-05-23 18:23:00,
2013-05-23 14:28:00,86.1,72.5,29.98,NNW,331,3.0,5.0,64,0.00,,,0.00,Wunderground v.1.13,2013-05-23 18:28:00,
2013-05-23 14:33:00,86.2,72.6,29.98,NW,315,7.0,9.0,64,0.00,,,0.00,Wunderground v.1.13,2013-05-23 18:33:00,
2013-05-23 14:38:00,86.6,73.0,29.98,WNW,293,5.0,5.0,64,0.00,,,0.00,Wunderground v.1.13,2013-05-23 18:38:00,
2013-05-23 14:43:00,86.8,72.7,29.98,WSW,257,5.0,5.0,63,0.00,,,0.00,Wunderground v.1.13,2013-05-23 18:43:00,
2013-05-23 14:48:00,86.5,72.9,29.98,NNW,344,1.0,6.0,64,0.00,,,0.00,Wunderground v.1.13,2013-05-23 18:48:00,
2013-05-23 14:53:00,86.5,72.4,29.98,WNW,290,6.0,10.0,63,0.00,,,0.00,Wunderground v.1.13,2013-05-23 18:53:00,
2013-05-23 14:58:00,85.7,72.1,29.97,NW,311,0.0,11.0,64,0.00,,,0.00,Wunderground v.1.13,2013-05-23 18:58:00,
2013-05-23 15:03:00,85.2,72.1,29.97,NW,311,7.0,11.0,65,0.00,,,0.00,Wunderground v.1.13,2013-05-23 19:03:00,
2013-05-23 15:09:00,85.7,72.1,29.97,NW,306,1.0,11.0,64,0.00,,,0.00,Wunderground v.1.13,2013-05-23 19:09:00,
2013-05-23 15:14:00,86.3,72.7,29.97,West,265,4.0,10.0,64,0.00,,,0.00,Wunderground v.1.13,2013-05-23 19:14:00,
2013-05-23 15:19:00,86.5,72.9,29.97,SSW,213,5.0,7.0,64,0.00,,,0.00,Wunderground v.1.13,2013-05-23 19:19:00,
2013-05-23 15:24:00,86.4,72.8,29.96,SW,220,5.0,8.0,64,0.00,,,0.00,Wunderground v.1.13,2013-05-23 19:24:00,
2013-05-23 15:29:00,87.1,72.5,29.96,NNW,331,9.0,9.0,62,0.00,,,0.00,Wunderground v.1.13,2013-05-23 19:29:00,
2013-05-23 15:34:00,87.3,72.2,29.96,WNW,303,0.0,11.0,61,0.00,,,0.00,Wunderground v.1.13,2013-05-23 19:34:00,
2013-05-23 15:39:00,87.3,72.7,29.96,NW,314,0.0,5.0,62,0.00,,,0.00,Wunderground v.1.13,2013-05-23 19:39:00,
2013-05-23 15:44:00,87.6,72.5,29.96,WNW,300,5.0,6.0,61,0.00,,,0.00,Wunderground v.1.13,2013-05-23 19:44:00,
2013-05-23 15:49:00,87.1,72.0,29.96,West,264,8.0,8.0,61,0.00,,,0.00,Wunderground v.1.13,2013-05-23 19:49:00,
2013-05-23 15:54:00,86.8,72.2,29.96,WNW,287,0.0,6.0,62,0.00,,,0.00,Wunderground v.1.13,2013-05-23 19:54:00,
2013-05-23 15:59:00,87.4,72.3,29.96,WNW,292,3.0,7.0,61,0.00,,,0.00,Wunderground v.1.13,2013-05-23 19:59:00,
2013-05-23 16:05:00,87.3,71.7,29.95,WSW,242,3.0,9.0,60,0.00,,,0.00,Wunderground v.1.13,2013-05-23 20:05:00,
2013-05-23 16:10:00,87.6,72.0,29.95,SW,221,3.0,7.0,60,0.00,,,0.00,Wunderground v.1.13,2013-05-23 20:10:00,
2013-05-23 16:15:00,87.7,71.6,29.95,NW,306,4.0,7.0,59,0.00,,,0.00,Wunderground v.1.13,2013-05-23 20:15:00,
2013-05-23 16:20:00,87.1,71.5,29.95,North,10,4.0,13.0,60,0.00,,,0.00,Wunderground v.1.13,2013-05-23 20:20:00,
2013-05-23 16:25:00,87.1,71.5,29.95,NW,306,6.0,8.0,60,0.00,,,0.00,Wunderground v.1.13,2013-05-23 20:25:00,
2013-05-23 16:30:00,87.0,71.4,29.95,West,268,10.0,11.0,60,0.00,,,0.00,Wunderground v.1.13,2013-05-23 20:30:00,
2013-05-23 16:35:00,87.0,71.9,29.95,WNW,302,1.0,7.0,61,0.00,,,0.00,Wunderground v.1.13,2013-05-23 20:35:00,
2013-05-23 16:40:00,87.1,72.0,29.95,WNW,282,3.0,12.0,61,0.00,,,0.00,Wunderground v.1.13,2013-05-23 20:40:00,
2013-05-23 16:45:00,86.8,72.2,29.95,NW,306,3.0,12.0,62,0.00,,,0.00,Wunderground v.1.13,2013-05-23 20:45:00,
2013-05-23 16:50:00,86.9,72.3,29.95,WNW,294,0.0,9.0,62,0.00,,,0.00,Wunderground v.1.13,2013-05-23 20:50:00,
2013-05-23 16:55:00,86.8,71.2,29.95,North,9,2.0,10.0,60,0.00,,,0.00,Wunderground v.1.13,2013-05-23 20:55:00,
2013-05-23 17:00:00,86.3,70.8,29.94,NW,325,0.0,7.0,60,0.00,,,0.00,Wunderground v.1.13,2013-05-23 21:00:00,
2013-05-23 17:05:00,86.2,71.2,29.94,NNW,327,2.0,6.0,61,0.00,,,0.00,Wunderground v.1.13,2013-05-23 21:05:00,
2013-05-23 17:10:00,86.4,71.4,29.95,WNW,294,2.0,9.0,61,0.00,,,0.00,Wunderground v.1.13,2013-05-23 21:10:00,
2013-05-23 17:15:00,86.5,71.0,29.95,North,355,0.0,11.0,60,0.00,,,0.00,Wunderground v.1.13,2013-05-23 21:15:00,
2013-05-23 17:20:00,86.5,71.0,29.95,NW,318,5.0,8.0,60,0.00,,,0.00,Wunderground v.1.13,2013-05-23 21:20:00,
2013-05-23 17:25:00,86.7,71.2,29.95,NNW,331,6.0,10.0,60,0.00,,,0.00,Wunderground v.1.13,2013-05-23 21:25:00,
2013-05-23 17:30:00,86.3,70.8,29.95,WNW,297,1.0,9.0,60,0.00,,,0.00,Wunderground v.1.13,2013-05-23 21:30:00,
2013-05-23 17:35:00,85.9,70.9,29.95,NW,311,7.0,11.0,61,0.00,,,0.00,Wunderground v.1.13,2013-05-23 21:35:00,
2013-05-23 17:41:00,85.9,70.4,29.95,NW,309,1.0,5.0,60,0.00,,,0.00,Wunderground v.1.13,2013-05-23 21:41:00,
2013-05-23 17:46:00,86.1,71.6,29.95,NW,319,5.0,10.0,62,0.00,,,0.00,Wunderground v.1.13,2013-05-23 21:46:00,
2013-05-23 17:51:00,85.9,70.9,29.95,WNW,302,3.0,12.0,61,0.00,,,0.00,Wunderground v.1.13,2013-05-23 21:51:00,
2013-05-23 17:56:00,85.7,71.2,29.95,WNW,295,1.0,4.0,62,0.00,,,0.00,Wunderground v.1.13,2013-05-23 21:56:00,
2013-05-23 18:01:00,85.5,71.0,29.95,NW,321,2.0,4.0,62,0.00,,,0.00,Wunderground v.1.13,2013-05-23 22:01:00,
2013-05-23 18:06:00,85.0,70.5,29.95,NW,313,1.0,5.0,62,0.00,,,0.00,Wunderground v.1.13,2013-05-23 22:06:00,
2013-05-23 18:11:00,84.8,71.3,29.95,WNW,302,0.0,5.0,64,0.00,,,0.00,Wunderground v.1.13,2013-05-23 22:11:00,
2013-05-23 18:16:00,84.4,70.9,29.94,WNW,294,5.0,9.0,64,0.00,,,0.00,Wunderground v.1.13,2013-05-23 22:16:00,
2013-05-23 18:21:00,84.4,71.8,29.94,WSW,242,4.0,5.0,66,0.00,,,0.00,Wunderground v.1.13,2013-05-23 22:21:00,
2013-05-23 18:26:00,84.5,71.4,29.94,WNW,303,6.0,9.0,65,0.00,,,0.00,Wunderground v.1.13,2013-05-23 22:26:00,
2013-05-23 18:31:00,84.3,71.2,29.94,WNW,296,3.0,6.0,65,0.00,,,0.00,Wunderground v.1.13,2013-05-23 22:31:00,
2013-05-23 18:36:00,84.2,71.2,29.94,West,275,3.0,4.0,65,0.00,,,0.00,Wunderground v.1.13,2013-05-23 22:36:00,
2013-05-23 18:41:00,84.0,71.4,29.94,NW,304,4.0,9.0,66,0.00,,,0.00,Wunderground v.1.13,2013-05-23 22:41:00,
2013-05-23 18:46:00,83.8,71.7,29.94,NW,304,1.0,5.0,67,0.00,,,0.00,Wunderground v.1.13,2013-05-23 22:46:00,
2013-05-23 18:52:00,83.7,71.6,29.94,West,263,0.0,5.0,67,0.00,,,0.00,Wunderground v.1.13,2013-05-23 22:52:00,
2013-05-23 18:57:00,83.4,71.3,29.94,WNW,284,3.0,5.0,67,0.00,,,0.00,Wunderground v.1.13,2013-05-23 22:57:00,
2013-05-23 19:02:00,83.2,71.1,29.94,NW,308,6.0,10.0,67,0.00,,,0.00,Wunderground v.1.13,2013-05-23 23:02:00,
2013-05-23 19:07:00,82.9,71.3,29.94,West,270,0.0,4.0,68,0.00,,,0.00,Wunderground v.1.13,2013-05-23 23:07:00,
2013-05-23 19:12:00,82.9,71.3,29.94,WNW,284,5.0,9.0,68,0.00,,,0.00,Wunderground v.1.13,2013-05-23 23:12:00,
2013-05-23 19:17:00,82.7,71.5,29.95,NW,310,5.0,9.0,69,0.00,,,0.00,Wunderground v.1.13,2013-05-23 23:17:00,
2013-05-23 19:22:00,82.3,71.1,29.95,NNW,333,0.0,3.0,69,0.00,,,0.00,Wunderground v.1.13,2013-05-23 23:22:00,
2013-05-23 19:27:00,82.1,71.3,29.95,West,263,0.0,4.0,70,0.00,,,0.00,Wunderground v.1.13,2013-05-23 23:27:00,
2013-05-23 19:32:00,81.7,71.4,29.95,NW,314,6.0,9.0,71,0.00,,,0.00,Wunderground v.1.13,2013-05-23 23:32:00,
2013-05-23 19:37:00,81.5,71.6,29.95,WSW,244,0.0,4.0,72,0.00,,,0.00,Wunderground v.1.13,2013-05-23 23:37:00,
2013-05-23 19:42:00,81.4,71.5,29.95,West,270,5.0,5.0,72,0.00,,,0.00,Wunderground v.1.13,2013-05-23 23:42:00,
2013-05-23 19:47:00,81.2,71.7,29.95,WNW,284,0.0,10.0,73,0.00,,,0.00,Wunderground v.1.13,2013-05-23 23:47:00,
2013-05-23 19:53:00,80.9,71.4,29.96,NW,306,4.0,4.0,73,0.00,,,0.00,Wunderground v.1.13,2013-05-23 23:53:00,
2013-05-23 19:58:00,80.7,71.6,29.96,NW,317,0.0,5.0,74,0.00,,,0.00,Wunderground v.1.13,2013-05-23 23:58:00,
2013-05-23 20:03:00,80.5,71.8,29.96,NW,317,0.0,5.0,75,0.00,,,0.00,Wunderground v.1.13,2013-05-24 00:03:00,
2013-05-23 20:08:00,80.1,71.5,29.96,NW,317,6.0,6.0,75,0.00,,,0.00,Wunderground v.1.13,2013-05-24 00:08:00,
2013-05-23 20:13:00,79.8,71.2,29.96,WNW,292,4.0,5.0,75,0.00,,,0.00,Wunderground v.1.13,2013-05-24 00:13:00,
2013-05-23 20:18:00,79.7,71.1,29.96,NW,313,4.0,6.0,75,0.00,,,0.00,Wunderground v.1.13,2013-05-24 00:18:00,
2013-05-23 20:23:00,79.5,71.3,29.97,WNW,288,4.0,6.0,76,0.00,,,0.00,Wunderground v.1.13,2013-05-24 00:23:00,
2013-05-23 20:28:00,79.4,71.2,29.97,West,281,0.0,4.0,76,0.00,,,0.00,Wunderground v.1.13,2013-05-24 00:28:00,
2013-05-23 20:33:00,79.3,71.5,29.97,West,281,0.0,2.0,77,0.00,,,0.00,Wunderground v.1.13,2013-05-24 00:33:00,
2013-05-23 20:38:00,79.1,71.3,29.97,WNW,283,7.0,7.0,77,0.00,,,0.00,Wunderground v.1.13,2013-05-24 00:38:00,
2013-05-23 20:43:00,79.0,71.6,29.97,WNW,286,0.0,2.0,78,0.00,,,0.00,Wunderground v.1.13,2013-05-24 00:43:00,
2013-05-23 20:48:00,78.8,71.4,29.97,WNW,286,0.0,2.0,78,0.00,,,0.00,Wunderground v.1.13,2013-05-24 00:48:00,
2013-05-23 20:53:00,78.7,71.3,29.97,WNW,286,0.0,3.0,78,0.00,,,0.00,Wunderground v.1.13,2013-05-24 00:53:00,
2013-05-23 20:58:00,78.7,71.3,29.97,WNW,286,5.0,5.0,78,0.00,,,0.00,Wunderground v.1.13,2013-05-24 00:58:00,
2013-05-23 21:03:00,78.6,71.2,29.97,WNW,287,3.0,4.0,78,0.00,,,0.00,Wunderground v.1.13,2013-05-24 01:03:00,
2013-05-23 21:09:00,78.5,71.4,29.97,WNW,287,3.0,6.0,79,0.00,,,0.00,Wunderground v.1.13,2013-05-24 01:09:00,
2013-05-23 21:14:00,78.4,71.3,29.97,WNW,287,0.0,4.0,79,0.00,,,0.00,Wunderground v.1.13,2013-05-24 01:14:00,
2013-05-23 21:19:00,78.3,71.2,29.98,West,275,0.0,4.0,79,0.00,,,0.00,Wunderground v.1.13,2013-05-24 01:19:00,
2013-05-23 21:24:00,78.2,71.5,29.98,West,278,4.0,4.0,80,0.00,,,0.00,Wunderground v.1.13,2013-05-24 01:24:00,
2013-05-23 21:29:00,78.1,71.4,29.98,West,278,3.0,4.0,80,0.00,,,0.00,Wunderground v.1.13,2013-05-24 01:29:00,
2013-05-23 21:34:00,78.0,71.3,29.98,West,277,0.0,2.0,80,0.00,,,0.00,Wunderground v.1.13,2013-05-24 01:34:00,
2013-05-23 21:39:00,77.9,71.2,29.98,West,277,0.0,1.0,80,0.00,,,0.00,Wunderground v.1.13,2013-05-24 01:39:00,
2013-05-23 21:44:00,77.7,71.4,29.98,West,278,0.0,0.0,81,0.00,,,0.00,Wunderground v.1.13,2013-05-24 01:44:00,
2013-05-23 21:49:00,77.5,71.2,29.98,West,278,0.0,0.0,81,0.00,,,0.00,Wunderground v.1.13,2013-05-24 01:49:00,
2013-05-23 21:54:00,77.4,71.1,29.98,West,278,0.0,0.0,81,0.00,,,0.00,Wunderground v.1.13,2013-05-24 01:54:00,
2013-05-23 21:59:00,77.2,70.9,29.98,West,278,0.0,0.0,81,0.00,,,0.00,Wunderground v.1.13,2013-05-24 01:59:00,
2013-05-23 22:05:00,77.1,71.2,29.98,West,278,0.0,0.0,82,0.00,,,0.00,Wunderground v.1.13,2013-05-24 02:05:00,
2013-05-23 22:10:00,76.9,71.0,29.98,West,278,0.0,0.0,82,0.00,,,0.00,Wunderground v.1.13,2013-05-24 02:10:00,
2013-05-23 22:15:00,76.7,70.8,29.98,West,277,0.0,0.0,82,0.00,,,0.00,Wunderground v.1.13,2013-05-24 02:15:00,
2013-05-23 22:20:00,76.5,70.6,29.99,West,277,0.0,0.0,82,0.00,,,0.00,Wunderground v.1.13,2013-05-24 02:20:00,
2013-05-23 22:25:00,76.4,70.9,29.99,West,278,0.0,0.0,83,0.00,,,0.00,Wunderground v.1.13,2013-05-24 02:25:00,
2013-05-23 22:30:00,76.2,70.7,29.99,West,278,0.0,0.0,83,0.00,,,0.00,Wunderground v.1.13,2013-05-24 02:30:00,
2013-05-23 22:35:00,76.1,70.6,29.99,West,278,0.0,0.0,83,0.00,,,0.00,Wunderground v.1.13,2013-05-24 02:35:00,
2013-05-23 22:40:00,76.0,70.8,29.99,West,278,0.0,0.0,84,0.00,,,0.00,Wunderground v.1.13,2013-05-24 02:40:00,
2013-05-23 22:45:00,75.8,70.6,29.99,West,278,0.0,0.0,84,0.00,,,0.00,Wunderground v.1.13,2013-05-24 02:45:00,
2013-05-23 22:51:00,75.7,70.5,29.99,West,277,0.0,0.0,84,0.00,,,0.00,Wunderground v.1.13,2013-05-24 02:51:00,
2013-05-23 22:56:00,75.6,70.4,29.99,West,278,0.0,0.0,84,0.00,,,0.00,Wunderground v.1.13,2013-05-24 02:56:00,
2013-05-23 23:01:00,75.4,70.2,29.99,West,277,0.0,0.0,84,0.00,,,0.00,Wunderground v.1.13,2013-05-24 03:01:00,
2013-05-23 23:06:00,75.2,70.4,29.99,West,277,0.0,0.0,85,0.00,,,0.00,Wunderground v.1.13,2013-05-24 03:06:00,
2013-05-23 23:11:00,75.1,70.3,29.99,West,278,0.0,0.0,85,0.00,,,0.00,Wunderground v.1.13,2013-05-24 03:11:00,
2013-05-23 23:16:00,75.0,70.2,29.99,West,277,0.0,0.0,85,0.00,,,0.00,Wunderground v.1.13,2013-05-24 03:16:00,
2013-05-23 23:21:00,74.8,70.3,29.99,West,278,0.0,0.0,86,0.00,,,0.00,Wunderground v.1.13,2013-05-24 03:21:00,
2013-05-23 23:26:00,74.5,69.7,29.99,West,277,0.0,0.0,85,0.00,,,0.00,Wunderground v.1.13,2013-05-24 03:26:00,
2013-05-23 23:31:00,74.4,69.9,29.99,West,278,0.0,0.0,86,0.00,,,0.00,Wunderground v.1.13,2013-05-24 03:31:00,
2013-05-23 23:36:00,74.2,69.7,29.99,West,277,0.0,0.0,86,0.00,,,0.00,Wunderground v.1.13,2013-05-24 03:36:00,
2013-05-23 23:41:00,74.0,69.5,29.99,West,278,0.0,0.0,86,0.00,,,0.00,Wunderground v.1.13,2013-05-24 03:41:00,
2013-05-23 23:46:00,73.8,69.3,29.99,West,278,0.0,0.0,86,0.00,,,0.00,Wunderground v.1.13,2013-05-24 03:46:00,
2013-05-23 23:52:00,73.6,69.2,29.99,West,278,0.0,0.0,86,0.00,,,0.00,Wunderground v.1.13,2013-05-24 03:52:00,
2013-05-23 23:57:00,73.5,69.4,29.99,West,278,0.0,0.0,87,0.00,,,0.00,Wunderground v.1.13,2013-05-24 03:57:00,